Regional Weather Roundup
Issued by NWS

Home | Current Version | Previous Version | Graphics & Text | Print | Product List | Glossary On
Versions: 1 2 3 4 5 6 7 8 9 10 11 12 13 14 15 16 17 18 19 20 21 22 23 24 25 26 27 28 29 30 31 32 33 34 35 36 37 38 39 40 41 42 43 44 45 46 47 48 49 50
000
ASUS43 KLSX 010459
RWRMO

WEATHER SUMMARY FOR MISSOURI
NATIONAL WEATHER SERVICE SPRINGFIELD MO
1100 PM CST SAT FEB 28 2015

NOTE: "FAIR" INDICATES FEW OR NO CLOUDS BELOW 12,000 FEET WITH NO
       SIGNIFICANT WEATHER AND/OR OBSTRUCTIONS TO VISIBILITY.
       CURRENT SKY AND/OR WEATHER CONDITIONS ARE NOT AVAILABLE FOR
       CHILLICOTHE AND FARMINGTON.

MOZ001>031-035>038-043-044-053-054-010600-
...NORTHERN AND WESTERN MISSOURI...

CITY           SKY/WX    TMP DP  RH WIND       PRES   REMARKS
KANSAS CTY INT FLURRIES  22  19  89 SE5       30.37F WCI  16
KANSAS C DTWN  LGT SNOW  24  20  84 E3        30.39S FOG
LEE`S SUMMIT   LGT SNOW  22  19  89 CALM      30.37F FOG
ST JOSEPH      CLOUDY    23  19  85 S7        30.39F WCI  15
CHILLICOTHE      N/A     23  19  85 SE3       30.41F
KIRKSVILLE     CLOUDY    20  18  92 SE6       30.40F WCI  12

$$
MOZ066>068-077>081-088>096-101>105-010600-
...SOUTHWEST MISSOURI...

CITY           SKY/WX    TMP DP  RH WIND       PRES   REMARKS
SPRINGFIELD    FLURRIES  26  24  92 SE10      30.32F WCI  16
JOPLIN         CLOUDY    27  26  96 MISG      30.35F FOG

$$
MOZ032>034-039>042-045>050-055>058-069>072-010600-
...CENTRAL MISSOURI...

CITY           SKY/WX    TMP DP  RH WIND       PRES   REMARKS
COLUMBIA       LGT SNOW  23  21  92 SE7       30.38F FOG     WCI  15
JEFFERSON CITY LGT SNOW  25  22  88 E5        30.41F VSB 1   WCI  19
ROLLA          LGT SNOW  24  21  88 E6        30.35F FOG     WCI  17
SEDALIA        LGT SNOW  24  21  88 NE3       30.38F FOG
OSAGE BEACH    CLOUDY    25  21  86 CALM      30.37F

$$
MOZ051-052-059>065-010600-
...EAST CENTRAL MISSOURI...

CITY           SKY/WX    TMP DP  RH WIND       PRES   REMARKS
ST LOUIS INTL  LGT SNOW  25  21  85 E6        30.43F VSB 3/4 WCI  18
SPIRIT OF STL  LGT SNOW  25  23  92 CALM      30.42F FOG
ST CHARLES     LGT SNOW  24  22  91 E6        30.43F FOG     WCI  17

$$
MOZ072>076-082>087-097>100-106>115-010600-
...SOUTH CENTRAL AND SOUTHEAST MISSOURI...

CITY           SKY/WX    TMP DP  RH WIND       PRES   REMARKS
CAPE GIRARDEAU CLOUDY    31  22  69 E8        30.43F WCI  23
FARMINGTON     CLOUDY    27  25  93 S10       30.43S WCI  17
POPLAR BLUFF   MIX PCPN  30  21  69 NE6       30.43S WCI  24
WEST PLAINS    FRZ RAIN  26  22  84 CALM      30.39S FOG

$$


USA.gov is the U.S. government's official web portal to all federal, state and local government web resources and services.